CLUSTER II-FM8 (TANGO) (26464 NORAD) Tracking and Keplerian Element Data

This shows tracking and keplerian element data for the satellite.

Feedback or suggestion? Click here.




ElementValue
Catalog26464
NameCLUSTER II-FM8 (TANGO)
Epoch Orbit5529
Epoch Day228.93656969
Epoch Year2018
RAAN336.5399
Inclination130.9799
Eccentricity0.4127389
Argument of Perigee163.7442
Mean Anonmoly215.0674
Mean Motion0.44219816
Decay Rate-1.76E-06
L11 26464U 00045B 18228.93656969 -.00000176 00000-0 00000+0 0 9999
L22 26464 130.9799 336.5399 4127389 163.7442 215.0674 0.44219816 55292

Live tracking and technical data element details for CLUSTER II-FM8 (TANGO) (NORAD 26464). CLUSTER II-FM8 (TANGO) can be tracked NOW for your location showing map with azimuth and elevation plus other details from your city location.

Track the satellite on the map from your city or location and see movement details for azimuth, elevation, latitude, longitude, range, height, and movement on the map or in text.







IsCatalogInMostPopularTable: catalog: 26464, numindb: 58
Update: records affected: 1



GetName: 26464 CLUSTER II-FM8 (TANGO)

Hit Count: updated at: Mon, 20 Aug 2018 00:43:44 GMT